{"data":{"norad_id":53969,"epoch":"2026-05-24T16:14:41.186976Z","epoch_age_seconds":96206,"freshness":"FRESH","line1":"1 53969U 22125F   26144.67686559 -.00000018  00000+0  16963-4 0  9991","line2":"2 53969  53.2165 242.9963 0001162  93.2153 266.8973 15.08838952200792","mean_motion":15.08838952,"eccentricity":0.0001162,"inclination_deg":53.2165,"raan_deg":242.9963,"arg_perigee_deg":93.2153,"mean_anomaly_deg":266.8973,"bstar":1.6963e-5,"rev_number":20079,"period_min":95.43762096619,"perigee_km":538.94273420927,"apogee_km":540.55045035612,"semimajor_km":6917.8835922827,"source":"CELESTRAK","updated_at":"2026-05-25T13:38:17.617740Z"}}